Regional Weather Roundup
Issued by NWS

Home | Current Version | Previous Version | Text Only | Print | Product List | Glossary On
Versions: 1 2 3 4 5 6 7 8 9 10 11 12 13 14 15 16 17 18 19 20 21 22 23 24 25 26 27 28 29 30 31 32 33 34 35 36 37 38 39 40 41 42 43 44 45 46 47 48 49
000
ASUS42 KTBW 271117
RWRFL
FLORIDA REGIONAL WEATHER ROUNDUP
NATIONAL WEATHER SERVICE TAMPA BAY RUSKIN FL
700 AM EDT WED JUL 27 2016

NOTE: "FAIR" INDICATES FEW OR NO CLOUDS BELOW 12,000 FEET WITH NO
SIGNIFICANT WEATHER AND/OR OBSTRUCTIONS TO VISIBILITY.

FLZ001>010-012>015-112-114-115-271200-
PANHANDLE FLORIDA

CITY           SKY/WX    TMP DP  RH WIND       PRES   REMARKS
PENSACOLA      PTCLDY    79  73  82 CALM      30.02R
PENSACOLA NAS  PTCLDY    77  72  84 CALM      30.01R
MILTON NAS     PTCLDY    73  73 100 SE3       30.03
CRESTVIEW      CLEAR     71  70  96 CALM      30.05R
DUKE FIELD     FAIR      73  72  95 CALM      30.02R
VALPARAISO     PTCLDY    76  73  90 NE1       30.03R
MARY ESTHER    CLEAR     82  69  64 N3        30.01R
PANAMA CITY    FAIR      75  73  93 CALM      30.04R
TYNDALL AFB    CLEAR     75  74  96 CALM      30.04R
APALACHICOLA   CLEAR     75  75 100 CALM      30.04R

STATION/POSITION SKY/WX   TEMP    WIND        PRES    WAVE   SWELL
                          AIR SEA DIR/SP/G            HT/PER HT/PER
                          (F)     (DEG/KT/KT) (MB)    (FT/S) (FT/S)
30.1N   87.6W              85 87  220/  8/ 10 1016.4R   3/ 5   3/ 5
29.2N   88.2W              84 85  180/  8/ 10 1015.6R
28.8N   86.0W              84 86  120/  6/  8 1017.1R   4/ 7   3/ 7
PANAMA CITY BEAC           83 86  200/  7/ 10 1017.1R
TOWER C                    82      CALM  /  1 1018.3R
28.5N   84.5W              85 87   50/  4/  6 1017.6R   3/ 5   3/ 5

$$
FLZ011-016>038-118-127-128-134-139-239-271200-
NORTH FLORIDA

CITY           SKY/WX    TMP DP  RH WIND       PRES   REMARKS
MARIANNA       CLEAR     74  74 100 S3        30.04R
TALLAHASSEE    PTCLDY    74  72  93 CALM      30.06R
PERRY          CLEAR     74  73  97 CALM      30.07S FOG
LIVE OAK         N/A     73  73 100 CALM      30.09R
CROSS CITY       N/A     72  69  90 CALM      30.07R
LAKE CITY      FAIR      70  70 100 CALM      30.08R
GAINESVILLE    CLEAR     71  69  93 CALM      30.08R
WILLISTON      FAIR      75  75 100 CALM      30.08S VSB 1
PALATKA        FAIR      73  73 100 CALM      30.08R
MAYPORT NAS    PTCLDY    80  74  81 W3        30.07R
JACKSONVILLE   PTCLDY    73  73 100 CALM      30.07R
JAX NAS        PTCLDY    80  73  79 CALM      30.08R
JAX CECIL      CLEAR     70  70 100 CALM      30.07R
FERNANDINA BEA FAIR      79  73  83 CALM      30.06R
PALM COAST     CLEAR     73  73 100 CALM      30.07R

STATION/POSITION SKY/WX   TEMP    WIND        PRES    WAVE   SWELL
                          AIR SEA DIR/SP/G            HT/PER HT/PER
                          (F)     (DEG/KT/KT) (MB)    (FT/S) (FT/S)
SHELL POINT      NOT AVBL
KEATON BEACH               76      90/  6/  7 1017.9R
CEDAR KEY                  83      70/  7/  9 1018.2F
FERNANDINA                 80 88  260/  3/  4 1017.8S
30.7N   81.3W                 86                N/A     2/ 5
MAYPORT                    81 86  290/  3/  3 1018.2F
31.4N   80.9W              83 87  280/ 14/ 17 1017.8R   2/ 5
ST AUGUSTINE               79 84  300/  3/  3 1019.3R

$$
FLZ040-043>046-052-053-057-058-063-144-271200-
INTERIOR CENTRAL FLORIDA

CITY           SKY/WX    TMP DP  RH WIND       PRES   REMARKS
OCALA          CLEAR     91  72  52 CALM      30.08S HX  98
THE VILLAGES     N/A     77  77 100 CALM      29.99R
LEESBURG       CLEAR     79  76  90 N5        30.08S
SANFORD        CLEAR     80  74  81 SW3       30.07S
ORLANDO EXEC   CLEAR     79  75  87 CALM      30.08R
ORLANDO INTL   PTCLDY    77  74  90 CALM      30.08R
KISSIMMEE      CLEAR     78  76  93 CALM      30.09R
WINTER HAVEN   CLEAR     78  74  87 NE3       30.09R
LAKELAND       CLEAR     79  75  89 CALM      30.08R
BARTOW         FAIR      73 N/A N/A CALM      30.09R
OKEECHOBEE     CLEAR     72  72 100 CALM      30.08R

$$
FLZ041-047-054-059-064-141-147-271200-
EAST CENTRAL FLORIDA

CITY           SKY/WX    TMP DP  RH WIND       PRES   REMARKS
ORMOND BEACH   CLEAR     75  73  94 CALM      30.07
DAYTONA BEACH  PTCLDY    77  75  93 CALM      30.08R
NEW SMYRNA BEA CLEAR     77  75  94 SW6       30.08
JFK SPACE CTR  CLEAR     77  74  89 S2        30.07R
TITUSVILLE     CLEAR     73  72  94 S6        30.08
CAPE CANAVERAL CLEAR     78  75  90 SW3       30.07S
PATRICK AFB    CLEAR     80  76  90 W3        30.08R
MELBOURNE      CLEAR     75  74  96 CALM      30.08R FOG
VERO BEACH     CLEAR     73  70  90 CALM      30.08R FOG
FT PIERCE      CLEAR     72  71  97 CALM      30.07R
STUART         CLEAR     81  77  89 CALM      30.08S

STATION/POSITION SKY/WX   TEMP    WIND        PRES    WAVE   SWELL
                          AIR SEA DIR/SP/G            HT/PER HT/PER
                          (F)     (DEG/KT/KT) (MB)    (FT/S) (FT/S)
28.5N   80.2W              83 83  220/  4/  6 1018.6F
28.9N   78.5W              84 86  210/  6/  8 1018.7R
TRIDENT PIER               80 87  260/  4/  6 1018.6R
28.4N   80.5W                 83                N/A     1/ 8

$$
FLZ050-056-061-142-242-148-248-149-249-151-251-155-255-
160-260-271200-
WEST CENTRAL FLORIDA

CITY           SKY/WX    TMP DP  RH WIND       PRES   REMARKS
CRYSTAL RIVER  FAIR      73  73 100 CALM      30.07S
INVERNESS      FAIR      73  73 100 CALM      30.09R
BROOKSVILLE    PTCLDY    75  74  96 CALM      30.08R
ZEPHYRHILLS    FAIR      53  53 100 CALM      30.08R
CLEARWATER AIR FAIR      79  73  83 NE3       30.06S
ST PETE CLEARW CLEAR     81  72  74 E6        30.06R
TAMPA INTL     PTCLDY    79  74  84 NE3       30.07R
TAMPA EXEC     CLEAR     77  73  88 CALM      30.07S
PLANT CITY     CLEAR     77  77 100 CALM      30.09S
MACDILL AFB    CLEAR     78  78 100 E2        30.06R
PETER O KNIGHT CLEAR     81  77  89 NE6       30.07R
ST PETERSBURG  CLEAR     82  75  79 E6        30.05R
SARASOTA       CLEAR     80  75  84 NE3       30.05R
VENICE         NOT AVBL

STATION/POSITION SKY/WX   TEMP    WIND        PRES    WAVE   SWELL
                          AIR SEA DIR/SP/G            HT/PER HT/PER
                          (F)     (DEG/KT/KT) (MB)    (FT/S) (FT/S)
27.3N   84.2W                 86                N/A     2/ 6
CLEARWATER BEACH           82 88   70/  5/  7 1017.7F
MIDDLE TAMPA BAY                   90/  7/  9 1017.9F
VENICE                     78 88   70/  4/  5 1017.5R

$$
FLZ066-069-070-075>078-162-262-165-265-271200-
SOUTHWEST FLORIDA AND KEYS

CITY           SKY/WX    TMP DP  RH WIND       PRES   REMARKS
PUNTA GORDA    CLEAR     76  75  97 E3        30.08R
FT MYERS       CLEAR     77  75  93 E3        30.06R
SOUTHWEST INTL PTCLDY    78  75  90 E7        30.07R
NAPLES         MOCLDY    77  76  96 NE7       30.06R
MARCO ISLAND   MOCLDY    79  72  78 NE6       30.07R
MARATHON       TSTM      76  74  93 E10G18    30.07R FOG
KEY WEST NAS   LGT RAIN  79  74  84 E16       30.04S
KEY WEST INTL  LGT RAIN  78  76  93 E12G18    30.05R

STATION/POSITION SKY/WX   TEMP    WIND        PRES    WAVE   SWELL
                          AIR SEA DIR/SP/G            HT/PER HT/PER
                          (F)     (DEG/KT/KT) (MB)    (FT/S) (FT/S)
NAPLES                        88              1017.2R
26.0N   85.6W              84 86   70/ 10/ 12 1016.9R   2/ 6   2/ 6
DRY TORTUGAS               83     100/ 19/ 20 1016.6R
SAND KEY                   79      90/ 20/ 21 1017.0F
LONG KEY                   82 87  100/ 15/ 17 1016.8S
MOLASSES REEF              80 85   70/  2/  5 1017.4R

$$
FLZ067-068-071>074-168-172>174-271200-
SOUTHEAST FLORIDA

CITY           SKY/WX    TMP DP  RH WIND       PRES   REMARKS
W PALM BEACH   PTCLDY    84  75  74 E9        30.07R
BOCA RATON     MOCLDY    79  77  94 MISG      30.07
FT LAUDER-EXEC LGT RAIN  80  74  81 E8        30.07R
FT LAUDERDALE  CLOUDY    81  75  82 NE8       30.06R
POMPANO BEACH  PTCLDY    79  74  84 E9        30.07R
PEMBROKE PINES PTCLDY    79  76  90 E7        30.08R
OPA LOCKA      PTCLDY    79  76  90 E5        30.07R
MIAMI          MOCLDY    77  71  82 NE6       30.07R
WEST KENDALL   PTCLDY    79  75  87 NE6       30.06R
HOMESTEAD      MOCLDY    82  76  82 E7        30.06R

STATION/POSITION SKY/WX   TEMP    WIND        PRES    WAVE   SWELL
                          AIR SEA DIR/SP/G            HT/PER HT/PER
                          (F)     (DEG/KT/KT) (MB)    (FT/S) (FT/S)
PORT EVERGLADES            84      70/  7/ 10 1017.3R
VIRGINIA KEY               84 89   70/  8/ 10 1017.6R
LAKE WORTH                         80/  8/  9   N/A
FOWEY ROCKS                84 84   90/ 11/ 12 1018.7R
SETTLEMENT POINT           84     110/  8/ 10 1019.2R

$$




USA.gov is the U.S. government's official web portal to all federal, state and local government web resources and services.